www.pogodaiklimat.ru

Погода и климат >> Архив погоды >> Россия >> Чукотка >> Айон Остров


ПОГОДА на Айон Острове

  • Прогноз погоды на Айон Острове
  • Монитор погоды на Айон Острове
  • Климат города

АРХИВ ПОГОДЫ на Айон Острове

Время (UTC), дата Ветер
(напр.,м/с)
 
Видим.   Явления Облачность Т
(С)
Тd
(С)
f
(%)
Тe
(С)
Тes
(С)
Комфортность P
(гПа)
Po
(гПа)
Тmin
(С)
Tmax
(С)
R
(мм)
S
(см)
03 16.03 Ю 7-8
{11}
20 км позёмок {метель} 6/0
[Ac trans]
-13.5 -15.2 87 -23 -23 1016.3 1014.5
06 16.03 З 2-4
{8}
20 км {метель} 8/0
[Ac trans]
-12.6 -14.3 87 -17 -17 1017.5 1015.6
09 16.03 З 3-4
{5}
20 км 3/0
[Ac trans]
-17.4 -19.2 86 -24 -24 1018.9 1017.0 -11.8
12 16.03 штиль 0
{5}
20 км ясно -18.2 -19.8 87 -18 -18 1019.5 1017.6
15 16.03 В 2-3
{3}
20 км ясно -21.1 -23.0 85 -27 -27 1019.6 1017.7
18 16.03 ЮВ 2-3
{4}
20 км ясно -23.6 -25.5 84 -30 -30 1019.5 1017.6
21 16.03 ЮВ 5-5
{6}
20 км ясно -20.8 -23.5 79 -31 -31 опасность
обморожения
1019.6 1017.7 -23.8 11
00 17.03 ЮВ 4-5
{6}
20 км ясно -17.7 -20.8 77 -26 -25 1019.4 1017.5
03 17.03 Ю 9-10
{10}
20 км позёмок {метель} ясно -18.0 -19.5 88 -30 -30 1018.3 1016.4
06 17.03 Ю 9-10
{11}
20 км позёмок {метель} ясно -18.4 -19.9 88 -31 -31 опасность
обморожения
1017.6 1015.7
09 17.03 Ю 10-10
{11}
20 км позёмок {метель} ясно -17.6 -19.0 89 -30 -30 1017.7 1015.8 -17.4
12 17.03 Ю 7-8
{11}
20 км позёмок {метель} ясно -19.5 -21.1 87 -31 -31 опасность
обморожения
1017.9 1016.0
15 17.03 ЮЗ 6-7
{8}
20 км позёмок {метель} 6/0
[Ac trans]
-18.3 -19.8 88 -29 -29 1018.5 1016.6
18 17.03 ЮЗ 4-5
{8}
20 км {метель} 8/0
[Ac trans]
-15.3 -17.2 85 -23 -23 1019.8 1017.9
21 17.03 ЮЗ 4-5
{6}
20 км 3/0
[Ac trans]
-19.4 -21.2 86 -28 -28 1021.2 1019.3 -21.9 10
00 18.03 ЮЗ 3-4
{5}
20 км ясно -18.3 -19.8 88 -26 -23 1022.2 1020.3
03 18.03 ЮЗ 4-5
{6}
20 км ясно -18.3 -20.1 86 -27 -26 1022.6 1020.7
06 18.03 Ю 4-5
{6}
20 км ясно -21.4 -23.3 85 -31 -31 опасность
обморожения
1022.3 1020.4
09 18.03 ЮВ 6-7
{8}
20 км позёмок {метель} ясно -22.7 -24.7 84 -34 -34 опасность
обморожения
1021.6 1019.7 -17.4
12 18.03 ЮВ 6-7
{8}
20 км позёмок {метель} ясно -22.1 -24.0 84 -34 -34 опасность
обморожения
1020.0 1018.1
15 18.03 ЮВ 9-10
{11}
10 км позёмок {метель} ясно -20.2 -21.9 86 -33 -33 опасность
обморожения
1017.4 1015.5
18 18.03 Ю 10-10
{11}
10 км позёмок {метель} 8/0
[Ac trans]
-17.6 -19.0 89 -30 -30 1015.6 1013.7
21 18.03 Ю 7-8
{11}
20 км позёмок {метель} 10/0
[Ac trans Ci fib]
-17.6 -19.0 89 -29 -29 1015.4 1013.5 -22.7 10
00 19.03 ЮЗ 3-4
{8}
20 км {метель} 8/0
[Ac trans Ci fib]
-16.0 -17.4 89 -23 -21 1016.2 1014.4
03 19.03 З 7-8
{9}
20 км позёмок {метель} 4/0
[Ci fib]
-17.0 -18.6 87 -28 -27 1016.7 1014.9
06 19.03 З 6-8
{10}
20 км позёмок {метель} 6/0
[Ac trans Ci fib]
-19.3 -20.9 87 -30 -30 1018.2 1016.3
09 19.03 З 3-5
{9}
20 км {метель} ясно -21.8 -23.6 85 -30 -30 1020.1 1018.2 -15.4
12 19.03 ЮЗ 4-5
{6}
20 км {метель} ясно -21.5 -23.2 86 -31 -31 опасность
обморожения
1020.5 1018.6
15 19.03 Ю 7-8
{8}
20 км позёмок {метель} ясно -23.4 -25.5 83 -36 -36 опасность
обморожения
1020.4 1018.5
18 19.03 Ю 8-10
{10}
20 км позёмок {метель} ясно -22.0 -23.9 84 -35 -35 опасность
обморожения
1020.0 1018.1
21 19.03 Ю 9-10
{10}
20 км позёмок {метель} ясно -22.4 -24.4 84 -36 -36 опасность
обморожения
1020.2 1018.3 -25.5 10
00 20.03 Ю 9-10
{11}
20 км позёмок {метель} ясно -19.8 -21.6 86 -33 -32 опасность
обморожения
1020.2 1018.3
03 20.03 Ю 8-9
{10}
20 км позёмок {метель} 3/0
[Ci fib]
-17.9 -19.9 84 -30 -29 1019.9 1018.0
06 20.03 Ю 8-9
{10}
20 км позёмок {метель} 3/0
[Ci fib]
-18.7 -20.8 83 -31 -31 опасность
обморожения
1019.9 1018.0
09 20.03 Ю 9-10
{10}
20 км позёмок {метель} ясно -20.7 -22.9 82 -34 -34 опасность
обморожения
1020.3 1018.4 -17.9
12 20.03 Ю 9-10
{11}
20 км позёмок {метель} ясно -22.3 -24.7 81 -36 -36 опасность
обморожения
1019.8 1017.9
15 20.03 Ю 9-9
{10}
20 км позёмок {метель} ясно -23.6 -26.1 80 -38 -38 опасность
обморожения
1019.4 1017.5
18 20.03 Ю 10-10
{11}
20 км позёмок {метель} ясно -23.8 -26.6 78 -39 -39 опасность
обморожения
1019.1 1017.2
21 20.03 Ю 9-10
{11}
20 км позёмок {метель} ясно -23.7 -26.6 77 -38 -38 опасность
обморожения
1019.4 1017.5 -24.8 10
00 21.03 Ю 9-10
{11}
20 км позёмок {метель} 3/0
[Ci fib]
-20.9 -24.2 75 -34 -34 опасность
обморожения
1019.4 1017.5
03 21.03 Ю 7-8
{10}
20 км позёмок {метель} 4/0
[Ac trans Ci fib]
-19.1 -22.3 76 -31 -30 опасность
обморожения
1019.3 1017.4
06 21.03 Ю 8-9
{9}
20 км позёмок {метель} 8/0
[Ac trans Ci fib]
-20.6 -23.5 77 -33 -33 опасность
обморожения
1019.1 1017.2
09 21.03 Ю 7-7
{9}
20 км позёмок {метель} 8/0
[Ac trans Ci fib]
-20.6 -23.2 80 -32 -32 опасность
обморожения
1019.3 1017.4 -17.6
12 21.03 Ю 6-7
{8}
20 км позёмок {метель} 3/0
[Ac trans]
-21.6 -23.9 82 -33 -33 опасность
обморожения
1018.9 1017.0
15 21.03 Ю 4-5
{7}
20 км {метель} ясно -21.1 -23.4 82 -30 -30 1018.6 1016.7
18 21.03 Ю 7-8
{8}
20 км позёмок {метель} 4/0
[Ac trans Ci fib]
-21.3 -23.5 82 -33 -33 опасность
обморожения
1017.9 1016.0
21 21.03 Ю 7-8
{9}
20 км позёмок {метель} 8/0
[Ac trans Ci fib]
-18.1 -20.4 82 -29 -29 1017.9 1016.0 -22.0 10
00 22.03 Ю 7-8
{9}
20 км позёмок {метель} 8/0
[Ac trans Ci fib]
-14.4 -16.9 81 -25 -24 1017.9 1016.0
03 22.03 Ю 7-8
{8}
4000 м слабый снег {метель} 10/0
[As op]
-13.2 -15.2 85 -23 -23 1017.2 1015.3
06 22.03 ЮЗ 6-8
{9}
20 км позёмок {снег, метель} 10/0
[As op]
-9.1 -11.1 85 -18 -18 1016.8 1015.0
09 22.03 ЮЗ 7-9
{10}
20 км позёмок {снег, метель} 10/0
[As trans]
-8.7 -11.0 83 -18 -18 1017.2 1015.4 -8.6 0.4
12 22.03 ЮЗ 7-8
{11}
4000 м слабый снег {метель} 10/0
[As op]
-8.6 -10.3 87 -18 -18 1017.0 1015.2
15 22.03 ЮЗ 6-8
{10}
20 км позёмок {снег, метель} 10/0
[As op]
-8.0 -9.8 87 -16 -16 1016.7 1014.9
18 22.03 ЮЗ 8-10
{12}
4000 м слабый снег {метель} 10/0
[As op]
-8.4 -9.7 90 -18 -18 1016.4 1014.6
21 22.03 ЮЗ 7-8
{10}
20 км позёмок {снег, метель} 10/0
[As trans]
-8.6 -9.8 91 -18 -18 1016.9 1015.1 -9.6 0.4 13

 

Местоположение метеостанции Айон Остров (Чукотка, Россия): широта 69.93 долгота 167.90 высота над уровнем моря 14 м.

В архиве по умолчанию представлена погода на Айон Острове за последнюю неделю. Архивные данные за месяц целиком и за предыдущие месяцы, начиная с января 2011 года, Вы можете получить, выбрав интересующий диапазон дат из раскрывающегося списка и нажав кнопку "Ввод!".

Внимание! Время в таблицах - всемирное. Для получения местного времени необходимо прибавить поправку, которая на Айон Острове равна 12 ч.

Смотрите также архив погоды в соседних городах и на ближайших метеорологических станциях:

Погода в Раучуе (Чукотка, Россия) (72 км)
Погода в Певеке (Чукотка, Россия) (92 км)
Погода в Валькаркае (Чукотка, Россия) (115 км)
Погода в 21 км (Чукотка, Россия) (117 км)
Погода в Чауне (Чукотка, Россия) (160 км)
Погода в Комсомольской (Чукотка, Россия) (211 км)
Погода в Билибино (Чукотка, Россия) (217 км)
Погода в Бухте Амбарчик (Чукотка, Россия) (218 км)
Погода на Островном (Чукотка, Россия) (252 км)
Погода в Паляваам-Глубокой (Чукотка, Россия) (257 км)

Пояснения к столбцам:

Ветер - указаны скорость ветра в м/с - средняя за 10 мин, порывы в срок и между сроками (в фигурных скобках) и направление, откуда дует ветер: С - северный, СВ - северо-восточный, В - восточный, ЮВ - юго-восточный, Ю - южный, ЮЗ - юго-западный, З - западный, СЗ - северо-западный.
Видимость - горизонтальная дальность видимости в метрах или километрах. При видимости от 1 до 10 км при отсутствии осадков обычно наблюдается дымка, при ухудшении видимости до 1 км и менее - туман. В сухую погоду видимость может ухудшаться дымом, пылью или мглою.
Явления - указаны атмосферные явления, наблюдавшиеся в срок или в последний час перед сроком; фигурными скобками обозначены явления, наблюдавшиеся между сроками (за 1-3 часа до срока); квадратными скобками обозначены град или гололедные отложения с указанием их диаметра в мм.
Облачность - указаны через наклонную черту общая и нижняя облачность в баллах и высота нижней границы облаков в метрах; квадратными скобками обозначены формы облаков: Ci - перистые, Cs - перисто-слоистые, Cc - перисто-кучевые, Ac - высококучевые, As - высокослоистые, Sc - слоисто-кучевые, Ns - слоисто-дождевые, Cu - кучевые, Cb - кучево-дождевые. Подробнее классификацию облаков см. в Атласе облаков (PDF).
T - Температура воздуха - температура, измеренная на высоте 2 м над землей.
Td - Температура точки росы - температура, при понижении до которой содержащийся в воздухе водяной пар достигнет насыщения.
f - Относительная влажность воздуха - влажноcть воздуха, измеренная на высоте 2 м над землей.
Te - Эффективная температура - температура, которую ощущает одетый по сезону человек в тени. Характеристика душности погоды. При расчете учитывается влияние влажности воздуха и скорости ветра на теплоощущения человека.
Tes - Эффективная температура на солнце - температура, которую ощущает человек, с поправкой на солнечный нагрев. Характеристика знойности погоды. Зависит от высоты солнца над горизонтом, облачности и скорости ветра. Ночью, в пасмурную погоду, а также при ветре 12 м/с и более поправка равна нулю.
P - Атмосферное давление - приведенное к уровню моря атмосферное давление.
Po - Атмосферное давление - измеренное на уровне метеостанции атмосферное давление.
Tmin - Минимальная температура - минимум температуры воздуха на высоте 2 м над землей.
Tmax - Максимальная температура - максимум температуры воздуха на высоте 2 м над землей.
R - Количество осадков - Количество выпавших осадков, мм. При наведении курсора мыши на число - период времени, за который выпало указанное количество осадков.
S - Снежный покров - Высота снежного покрова, см. При наведении курсора мыши на число - состояние снежного покрова и степень покрытия местности в баллах.